Vorticity
nan nan nan nan nan nan nan nan nan nan nan nan nan nan nan nan nan nan nan nan nan nan nan nan nan nan nan nan nan nan nan nan nan nan nan nan nan nan nan nan nan nan nan nan nan nan nan nan nan
nan 4 5 8 5 4 8 8 7 7 5 6 13 4 5 8 8 10 11 14 10 6 5 9 8 5 5 4 4 5 4 5 4 5 4 4 4 4 4 3 3 3 3 3 3 3 4 4 nan
nan 7 6 8 4 4 6 6 2 -0 5 9 10 8 10 3 8 6 8 14 8 6 6 10 9 5 5 5 5 5 5 5 5 4 4 4 4 4 4 4 4 4 3 3 3 3 4 4 nan
nan 5 7 8 4 4 5 3 1 4 5 4 8 8 5 9 13 11 11 7 6 6 8 10 7 5 5 5 4 4 5 4 4 4 4 4 4 4 4 4 4 4 4 4 3 4 6 7 nan
nan 8 8 6 6 5 6 5 12 10 6 2 1 5 6 12 16 11 7 4 4 6 7 11 8 5 5 5 5 5 4 4 4 4 4 4 4 5 4 4 4 4 4 4 4 5 6 7 nan
nan 8 6 7 4 7 9 7 12 11 4 4 12 8 3 7 8 7 4 4 5 6 6 10 10 5 5 5 5 5 4 4 4 4 5 5 4 5 4 4 4 4 5 4 4 6 5 5 nan
nan 7 5 5 6 6 7 9 9 10 13 9 9 11 6 5 7 10 4 5 6 6 7 8 10 11 8 6 5 5 5 5 5 4 5 5 5 5 5 5 5 5 5 5 6 5 6 5 nan
nan 5 6 7 7 4 5 10 5 9 9 11 11 8 6 9 14 7 8 7 7 8 7 8 8 8 7 11 10 6 5 5 5 5 5 6 7 7 6 5 6 5 5 6 6 5 6 6 nan
nan 4 7 7 5 6 -1 4 -2 5 7 8 7 9 7 4 8 8 7 5 8 7 9 8 9 7 7 8 12 11 8 7 6 7 6 3 5 11 10 8 5 6 6 7 6 5 5 5 nan
nan 2 6 3 1 -1 -2 1 6 2 7 10 5 7 12 7 3 6 4 4 9 6 6 6 7 8 8 7 10 9 9 9 9 9 8 7 7 8 10 10 10 11 8 10 8 8 7 7 nan
nan 7 3 -0 2 -0 3 4 7 2 8 7 2 4 4 10 10 4 6 7 9 9 8 8 5 7 6 6 6 7 8 9 10 9 7 7 6 6 6 8 12 15 13 11 12 10 11 10 nan
nan 11 7 5 2 4 4 2 5 5 6 3 4 5 5 3 4 10 10 6 6 13 12 9 7 7 4 5 8 7 6 7 8 10 7 5 6 7 6 6 8 8 13 10 8 8 8 8 nan
nan 8 8 9 7 5 6 6 2 2 7 6 7 8 8 8 6 8 8 7 6 7 11 14 8 6 7 4 5 8 7 7 8 9 7 5 6 7 7 7 8 8 8 8 6 7 8 9 nan
nan 10 6 6 12 10 9 5 5 8 7 6 6 7 9 9 6 6 8 10 8 7 8 15 11 8 7 6 4 6 8 8 8 8 10 7 5 6 7 8 7 8 8 8 8 8 8 9 nan
nan 6 9 9 6 10 14 5 10 9 9 10 9 6 5 3 7 7 7 10 8 9 12 10 11 9 9 7 5 6 8 9 8 9 11 9 6 6 7 7 8 8 9 8 8 9 9 7 nan
nan 10 9 8 8 9 12 1 12 11 10 9 8 6 6 5 9 10 9 7 8 10 11 7 11 11 8 8 8 8 9 8 9 9 11 11 6 7 7 8 8 9 8 8 8 7 7 7 nan
nan 6 10 8 12 10 3 4 8 4 1 2 3 4 6 9 10 10 8 8 10 11 7 9 9 12 10 9 11 10 9 7 9 10 11 11 8 7 7 7 9 9 8 7 7 6 7 8 nan
nan 10 2 15 13 7 -0 14 4 6 9 8 6 8 7 9 7 7 9 10 12 10 8 10 12 10 11 8 8 10 9 10 11 9 12 10 8 5 5 7 9 7 8 7 7 8 7 9 nan
nan 12 7 16 12 9 6 10 7 8 7 10 8 10 12 15 12 9 10 15 13 11 12 10 9 8 7 6 6 8 8 6 8 12 10 7 7 7 7 7 8 8 8 6 6 9 10 7 nan
nan 4 6 2 9 9 14 9 8 7 9 9 10 11 13 11 10 11 15 13 10 8 8 9 10 9 5 8 9 9 9 8 10 10 10 9 7 7 9 8 8 7 7 8 10 8 8 10 nan
nan 8 7 -1 2 7 15 12 13 12 10 8 14 14 10 5 9 12 14 8 8 10 9 9 11 8 8 9 8 8 8 9 8 9 10 11 11 10 9 9 8 8 8 10 10 9 8 8 nan
nan 7 13 8 7 16 2 11 4 13 6 9 8 8 5 7 11 9 9 13 9 8 10 11 10 8 8 8 9 9 6 7 8 8 10 12 10 9 9 9 9 8 9 9 8 8 7 8 nan
nan 9 12 8 11 12 3 14 8 11 9 10 11 10 6 11 12 14 14 10 10 12 9 9 9 8 9 10 8 6 9 9 10 11 11 9 9 9 9 8 8 8 8 9 9 8 8 7 nan
nan 20 13 11 11 10 19 2 15 15 12 10 9 6 9 11 11 16 20 14 9 9 10 9 8 8 9 10 10 10 9 9 10 10 8 8 8 8 9 9 8 9 8 8 9 9 9 8 nan
nan 11 14 17 14 17 9 4 13 5 9 4 4 8 8 11 15 14 11 8 10 10 7 7 8 9 9 8 10 9 10 10 8 7 7 7 7 9 10 9 8 8 9 9 9 10 9 9 nan
nan 6 8 8 0 13 8 7 12 4 -4 4 9 9 12 17 15 13 10 9 9 8 7 8 8 9 10 8 8 9 8 8 9 10 9 8 9 10 10 9 9 9 8 9 8 9 10 9 nan
nan 13 5 5 11 10 10 7 7 11 17 22 14 14 16 14 14 11 10 11 8 7 9 8 7 9 8 8 7 8 8 10 10 10 9 9 10 11 10 9 8 9 10 10 8 9 10 9 nan
nan 7 10 14 18 4 8 13 18 11 13 11 15 15 11 11 12 9 10 9 7 9 8 8 9 9 7 8 8 9 9 8 9 8 9 9 8 10 10 8 9 9 10 10 9 7 11 10 nan
nan 11 12 10 7 9 8 8 7 3 6 7 17 23 12 10 8 8 8 8 9 9 8 7 8 8 8 8 8 9 9 9 9 9 9 8 9 9 9 8 9 9 10 11 10 10 10 9 nan
nan nan nan nan nan nan nan nan nan nan nan nan nan nan nan nan nan nan nan nan nan nan nan nan nan nan nan nan nan nan nan nan nan nan nan nan nan nan nan nan nan nan nan nan nan nan nan nan nan
CAPE
0 0 0 0 0 0 0 0 0 0 0 0 0 0 0 0 0 0 0 6 44 8 330 712 812 586 425 304 181 117 68 51 40 0 0 0 0 0 0 0 0 0 0 0 0 0 0 0 0
0 0 0 0 0 0 0 0 0 2 0 0 0 0 0 0 0 0 89 126 27 27 188 226 798 656 625 446 272 190 103 113 88 25 0 0 0 0 0 0 0 0 0 0 0 0 0 0 0
0 0 0 0 0 0 0 0 0 0 0 0 0 0 0 0 0 0 0 107 19 14 91 86 885 733 730 540 341 238 177 152 125 40 14 0 0 0 0 0 0 0 0 0 7 22 29 23 20
0 0 0 0 0 0 0 0 0 0 0 0 0 0 0 0 0 0 201 42 0 0 2 339 870 786 807 694 504 335 295 245 210 128 87 47 18 37 25 0 0 0 17 38 75 149 182 178 166
0 0 0 0 0 0 0 0 0 0 0 3 0 0 0 0 0 244 237 62 0 0 0 247 964 948 931 826 639 462 384 370 406 414 244 220 196 170 66 70 72 73 95 149 291 406 363 319 362
0 0 0 0 0 0 0 0 0 0 0 1 0 0 0 0 11 285 234 86 0 0 0 67 983 1015 938 859 678 547 548 528 586 606 582 499 485 482 263 207 151 161 301 464 545 390 384 324 273
0 0 0 0 0 0 0 0 0 0 0 2 0 0 0 0 0 72 209 123 30 0 0 33 285 706 1204 981 876 754 684 654 702 724 702 736 752 767 773 655 407 354 554 710 769 543 491 250 189
0 0 0 0 0 0 0 0 0 0 0 0 0 0 0 0 0 0 19 1 23 16 0 28 70 277 430 575 1259 1038 835 834 769 860 882 924 970 1001 968 836 881 662 811 1064 856 727 581 365 268
0 0 0 0 0 0 0 0 0 0 0 0 0 0 0 0 0 0 0 0 0 49 13 119 161 43 223 348 700 1206 1058 1032 938 888 953 850 608 595 626 768 843 896 1174 1380 1133 1086 767 480 312
0 0 0 0 0 0 0 0 0 0 0 0 0 0 0 0 0 0 0 0 0 48 141 204 237 170 132 226 301 689 569 526 563 472 454 531 422 315 574 732 1081 1175 1535 1735 1581 1322 738 596 87
0 0 0 0 0 0 0 0 0 0 0 0 0 0 0 0 0 0 0 0 0 1 173 324 291 242 211 136 232 640 454 390 444 431 363 500 403 351 443 304 426 835 1454 1108 1234 827 649 265 17
0 0 0 0 0 0 0 0 0 0 0 0 0 0 0 0 0 0 0 0 0 0 25 483 385 343 308 214 252 410 466 398 468 491 418 447 379 210 167 227 195 359 618 654 377 313 164 100 3
0 0 0 0 0 0 0 0 0 0 0 0 0 0 0 0 0 0 0 0 0 0 0 313 450 457 392 278 338 402 437 410 456 516 408 411 365 261 233 239 121 179 170 217 116 7 33 39 3
0 0 0 0 0 0 0 0 0 0 0 0 0 0 0 0 0 0 0 0 0 0 0 0 481 520 503 427 328 453 496 409 361 424 420 376 390 395 405 191 27 71 47 63 75 93 32 42 0
0 0 0 0 0 0 0 0 0 0 0 0 0 0 0 0 0 0 0 0 0 0 0 0 116 593 645 574 339 506 564 536 465 413 415 389 471 543 405 216 153 68 45 24 30 0 0 0 0
0 0 0 0 0 0 0 0 0 0 0 0 0 0 0 0 0 0 0 0 0 0 0 0 13 238 637 613 243 633 703 676 572 485 486 613 635 576 280 174 191 161 66 37 2 0 0 0 0
0 0 0 0 0 0 0 0 0 0 0 0 0 0 0 0 0 0 0 0 0 0 0 0 54 161 361 330 470 704 749 741 475 458 730 824 769 331 272 211 167 79 68 24 12 1 0 0 0
0 0 0 0 0 0 0 0 0 0 0 0 0 0 0 0 0 0 0 0 0 0 0 0 286 531 634 531 615 547 328 193 65 282 484 467 434 365 209 234 146 108 65 37 19 35 1 17 11
0 0 0 0 0 0 0 0 0 0 0 0 0 0 0 0 0 0 0 0 0 0 29 71 599 837 1097 889 910 502 295 70 17 66 319 398 194 183 120 172 104 92 98 51 0 2 17 18 0
0 0 0 0 0 0 0 0 0 0 0 0 0 0 0 0 0 0 0 0 0 50 120 506 908 1057 1217 1067 745 414 178 35 25 44 147 212 197 211 205 213 207 166 103 18 1 0 1 0 0
0 0 0 0 0 0 0 0 0 0 0 0 0 0 0 0 0 0 0 0 0 101 419 806 1061 1011 982 876 408 152 65 58 24 15 21 174 206 216 236 101 99 61 63 20 0 0 0 0 0
0 0 0 0 0 0 0 0 0 0 0 0 0 0 0 0 0 0 0 0 18 241 400 990 1006 1077 920 632 420 300 170 163 66 64 10 120 146 108 109 76 54 55 11 0 0 0 0 0 0
0 0 0 0 0 0 0 0 0 0 0 0 0 0 0 0 0 0 0 0 71 264 500 894 879 901 518 482 385 117 82 43 4 31 118 96 119 163 143 70 27 0 0 0 0 0 0 0 0
0 0 0 0 0 0 0 0 0 0 0 0 0 0 0 0 0 0 0 134 236 506 775 664 589 525 320 290 93 15 151 24 54 84 116 46 5 13 68 10 0 0 0 0 0 0 0 0 0
0 0 0 0 0 0 0 0 0 0 0 0 0 0 0 0 0 89 146 206 474 719 696 441 464 410 192 52 44 2 7 0 53 6 0 12 24 28 17 0 0 0 0 0 0 0 0 0 2
0 0 0 0 0 0 0 0 0 0 0 0 0 0 0 0 0 88 136 313 551 607 530 444 252 295 119 98 23 0 0 8 15 1 0 9 0 0 0 0 0 0 0 0 0 0 0 0 0
0 0 0 0 0 0 0 0 0 0 0 0 0 0 0 25 111 93 127 334 503 402 315 257 109 136 37 18 21 2 46 58 9 0 0 0 0 0 0 0 0 0 0 6 0 0 5 11 0
0 0 0 0 0 0 0 0 0 0 0 0 0 0 34 63 94 67 213 373 372 216 233 87 67 77 33 0 32 51 40 33 9 0 0 0 0 0 0 0 0 0 0 0 0 4 11 0 0
0 0 0 0 0 0 0 0 0 0 0 0 0 0 82 101 93 137 280 310 247 241 175 63 69 89 29 0 11 5 31 39 0 0 0 0 0 0 0 17 25 0 0 0 0 0 6 0 0
0 0 0 0 0 0 0 0 0 0 0 0 0 95 106 98 59 226 267 232 225 250 111 79 39 65 3 0 56 18 38 0 0 0 0 0 0 0 8 76 22 6 0 0 0 0 9 18 1